Santa Fe, NM

9:40 AM MDT on May 22, 2017 (GMT -0600)
Santa Fe Municipal

Weather History for KSAF - December, 2013

Change the Weather History Date:

Saturday, December 7, 2013

  Actual Average Record
Temperature  
Mean Temperature 16 °F -  
Max Temperature 26 °F 54 °F 57 °F (2007)
Min Temperature 7 °F 19 °F 5 °F (2005)
Degree Days  
Heating Degree Days 49    
Moisture  
Dew Point 16 °F    
Average Humidity 89    
Maximum Humidity 96    
Minimum Humidity 78    
Precipitation  
Precipitation 0.00 in - - ()
Sea Level Pressure  
Sea Level Pressure 30.03 in    
Wind  
Wind Speed 13 mph (SSE)    
Max Wind Speed 25 mph    
Max Gust Speed 30 mph    
Visibility 8 miles    
Events Snow    
Averages and records for this station are not official NWS values.
T = Trace of Precipitation, MM = Missing Value Source: NWS Daily Summary

Daily Weather History Graph

Daily Weather History Graph

Search for Another Location

Airport or City:

Trip Planner

Search our weather history database for the weather conditions in past years. The results will help you decide how hot, cold, wet, or windy it might be!

Date:

Astronomy

Dec. 07, 2013 Rise Set
Actual Time 7:00 AM MST 4:50 PM MST
Civil Twilight 6:32 AM MST 5:19 PM MST
Nautical Twilight 6:00 AM MST 5:50 PM MST
Astronomical Twilight 5:29 AM MST 6:21 PM MST
Moon 10:54 AM MST (12/7) 10:27 PM MST (12/7)
Length of Visible Light 10h 46m
Length of Day
9h 50m
Waxing Crescent, 30% of the Moon is Illuminated
Dec 7
Waxing Crescent
Dec 9
First Quarter
Dec 17
Full
Dec 25
Last Quarter
Jan 1
New

Hourly Weather History & Observations

Time (MST) Temp. Windchill Dew Point Humidity Pressure Visibility Wind Dir Wind Speed Gust Speed Precip Events Conditions
12:53 AM 7.0 °F 0.1 °F 1.9 °F 80% 30.22 in 10.0 mi SW 3.5 mph - N/A   Clear
1:42 AM 10.0 °F -3.7 °F 7.0 °F 87% 30.07 in 3.0 mi SSE 10.4 mph - N/A   Scattered Clouds
1:44 AM 10.0 °F -5.2 °F 8.1 °F 92% 30.07 in 2.0 mi South 12.7 mph - N/A   Mostly Cloudy
1:53 AM 10.9 °F -4.7 °F 9.0 °F 92% 30.19 in 1.2 mi SSE 13.8 mph - N/A   Mostly Cloudy
2:10 AM 12.0 °F -5.6 °F 9.0 °F 88% 30.07 in 1.2 mi SSE 18.4 mph 27.6 mph N/A   Overcast
2:33 AM 12.0 °F -6.0 °F 10.0 °F 92% 30.06 in 2.0 mi SE 19.6 mph 27.6 mph N/A   Overcast
2:45 AM 12.0 °F -6.0 °F 10.0 °F 92% 30.06 in 1.8 mi SSE 19.6 mph - N/A Snow Blowing Snow
2:53 AM 12.9 °F -3.4 °F 10.9 °F 92% 30.17 in 1.8 mi SE 16.1 mph - N/A   Overcast
3:33 AM 14.0 °F 0.5 °F 10.9 °F 88% 30.06 in 2.0 mi SSE 11.5 mph - N/A   Overcast
3:44 AM 12.9 °F -3.4 °F 10.9 °F 92% 30.06 in 4.0 mi SSE 16.1 mph - N/A   Overcast
3:53 AM 12.9 °F -2.2 °F 10.0 °F 88% 30.17 in 9.0 mi SSE 13.8 mph - N/A   Overcast
4:53 AM 15.1 °F -1.1 °F 12.0 °F 88% 30.18 in 10.0 mi SSE 17.3 mph - N/A   Overcast
5:53 AM 17.1 °F 0.1 °F 12.9 °F 84% 30.15 in 10.0 mi SE 20.7 mph - N/A   Overcast
6:53 AM 18.0 °F 3.1 °F 15.1 °F 88% 30.16 in 10.0 mi SSE 16.1 mph - N/A   Overcast
7:53 AM 19.0 °F 3.6 °F 16.0 °F 88% 30.18 in 10.0 mi SSE 18.4 mph - N/A   Overcast
8:53 AM 19.9 °F 2.5 °F 16.0 °F 85% 30.14 in 10.0 mi SE 25.3 mph 29.9 mph N/A   Overcast
9:53 AM 19.9 °F 3.9 °F 17.1 °F 89% 30.15 in 10.0 mi SSE 20.7 mph - N/A   Overcast
10:53 AM 21.0 °F 6.6 °F 18.0 °F 88% 30.14 in 9.0 mi SSE 17.3 mph 24.2 mph N/A   Overcast
11:53 AM 21.9 °F 7.8 °F 19.0 °F 89% 30.09 in 10.0 mi SSE 17.3 mph - N/A   Overcast
12:53 PM 21.9 °F 8.7 °F 19.0 °F 89% 30.06 in 10.0 mi SE 15.0 mph - N/A   Overcast
1:53 PM 21.9 °F 8.7 °F 19.0 °F 89% 29.99 in 10.0 mi SE 15.0 mph - N/A   Overcast
2:53 PM 21.9 °F 7.8 °F 19.0 °F 89% 29.96 in 10.0 mi SSE 17.3 mph - N/A   Overcast
3:53 PM 21.9 °F 9.2 °F 19.0 °F 89% 29.95 in 10.0 mi SE 13.8 mph - N/A   Overcast
4:53 PM 21.9 °F 8.7 °F 19.0 °F 89% 29.92 in 10.0 mi SE 15.0 mph - N/A   Overcast
5:53 PM 21.9 °F 9.8 °F 19.9 °F 92% 29.90 in 10.0 mi SE 12.7 mph - N/A   Overcast
6:53 PM 21.9 °F 10.4 °F 21.0 °F 96% 29.91 in 10.0 mi SE 11.5 mph - N/A   Overcast
7:12 PM 23.0 °F 13.1 °F 21.0 °F 92% 29.82 in 10.0 mi SE 9.2 mph - N/A   Overcast
7:53 PM 24.1 °F 15.2 °F 21.9 °F 91% 29.89 in 9.0 mi SE 8.1 mph - 0.00 in   Overcast
8:53 PM 24.1 °F 14.4 °F 23.0 °F 96% 29.88 in 10.0 mi SE 9.2 mph - 0.00 in   Overcast
9:53 PM 25.0 °F 17.1 °F 23.0 °F 92% 29.88 in 10.0 mi ESE 6.9 mph - 0.00 in   Overcast
10:30 PM 25.0 °F 18.1 °F 21.9 °F 88% 29.82 in 10.0 mi East 5.8 mph - N/A   Overcast
10:53 PM 25.0 °F 19.3 °F 21.9 °F 88% 29.88 in 10.0 mi East 4.6 mph - N/A   Overcast
11:53 PM 26.1 °F 20.5 °F 19.9 °F 78% 29.86 in 10.0 mi WSW 4.6 mph - N/A   Overcast